Powrót do katalogu

BREEZE-M R/B

AktywnyHEO
NORAD 33455·ROCKET BODY·🇷🇺 Russia

Wystrzelony Dec 10, 2008 z Baikonur Cosmodrome

Loading…

Następne Przeloty (najbliższe 24 godziny)

TLE

Starzejące sięSource: Space-Track

Epoka: Aug 29, 2026, 20:15 UTC

1 33455U 08063C   26241.84419706 -.00000250  00000-0  00000+0 0  9998
2 33455  18.4112 125.1784 5603611 176.9761  17.5770  1.97941326128130

Śledź BREEZE-M R/B w czasie rzeczywistym z AllMySat

Download on the App Store